Theta_e
351 351 350 348 349 352 352 352 354 355 354 353 352 353 355 356 358 357 358 358 360 358 362 364 363 362 366 361 362 361 362 358 359 360 360 360 359 358 358 356 355 350
352 352 357 350 352 356 354 355 356 356 357 355 356 355 356 356 357 357 357 358 362 360 362 364 364 363 363 361 362 361 359 361 357 366 360 358 357 359 359 355 355 354
353 354 355 350 351 353 354 356 357 356 357 357 358 357 358 358 356 357 356 357 360 360 361 364 363 362 363 361 361 362 361 358 357 357 358 355 359 358 358 359 354 354
353 355 355 352 353 353 355 355 356 356 357 357 357 359 359 362 357 357 355 363 359 360 361 363 362 362 361 361 360 360 360 359 359 358 357 359 361 361 360 357 357 354
354 355 356 354 355 356 356 355 355 356 355 357 357 357 359 358 357 355 355 357 358 358 361 361 361 360 361 359 359 358 359 359 359 358 356 355 357 361 361 359 353 351
355 355 356 355 354 355 354 354 355 356 356 356 356 357 357 358 356 355 356 356 357 358 361 361 360 359 360 359 359 358 358 358 358 359 357 357 358 359 363 360 354 351
355 354 354 355 354 354 353 354 355 356 355 355 357 355 355 356 355 355 355 357 356 358 360 360 359 359 358 359 359 358 357 358 357 358 357 356 356 356 359 358 355 353
354 355 355 354 353 353 353 352 353 355 354 355 355 355 355 354 355 355 356 358 357 356 358 359 359 358 358 358 359 358 356 360 358 357 356 356 354 355 356 359 356 352
354 354 354 353 353 352 353 353 353 354 354 354 354 354 355 354 354 355 355 356 356 355 356 357 357 357 358 358 359 358 356 359 360 358 356 355 355 356 357 357 356 354
353 353 353 353 353 352 352 353 353 352 354 353 354 354 353 354 354 354 354 354 354 354 354 354 356 356 357 357 358 359 358 358 359 358 357 357 357 357 358 358 356 353
353 353 353 352 352 352 350 351 351 351 352 353 353 352 353 353 353 354 354 354 354 354 353 353 355 356 356 357 358 359 359 359 359 358 358 357 358 358 364 358 356 354
352 352 352 352 352 352 351 350 350 350 350 352 353 351 351 352 352 353 354 354 354 354 354 355 355 356 357 357 357 358 359 359 359 358 358 358 358 358 357 358 356 354
351 351 352 352 352 352 352 351 349 349 349 351 353 351 350 350 352 352 353 354 355 350 344 346 346 347 348 350 353 357 358 358 358 358 357 357 357 357 356 356 357 356
350 351 350 351 351 352 351 351 350 349 348 350 352 351 349 349 349 352 352 351 350 349 347 348 347 346 345 346 345 348 353 356 357 357 357 356 356 355 356 356 356 356
349 349 350 352 353 351 350 349 347 346 346 346 350 351 351 351 351 350 351 352 350 350 349 350 349 348 348 347 346 345 347 352 355 355 354 352 351 353 353 354 353 352
347 351 352 353 352 352 353 356 358 357 354 351 348 349 349 349 349 350 349 347 349 349 350 351 350 350 350 353 353 350 347 350 352 354 353 350 350 349 349 351 352 352
344 344 344 344 350 350 350 351 353 355 353 349 348 349 349 350 347 346 346 348 349 348 348 349 351 351 351 339 340 347 354 352 351 353 352 350 349 349 349 350 351 351
347 347 346 346 345 344 346 348 351 350 350 349 347 347 347 348 347 346 347 348 349 347 347 349 349 353 336 332 334 335 344 353 353 348 353 350 350 350 349 349 348 350
347 345 346 346 346 347 347 347 350 350 349 350 349 349 347 345 346 347 346 347 347 346 347 349 345 332 327 330 330 331 335 352 351 351 349 351 351 349 349 349 348 349
346 345 344 345 346 346 345 344 345 350 352 352 351 349 347 348 348 346 347 347 347 346 347 343 336 328 325 327 328 329 332 342 346 348 350 349 346 346 349 349 351 351
342 343 343 343 344 345 345 344 344 343 349 350 350 347 346 346 347 347 349 351 352 349 342 337 330 321 321 324 323 325 328 343 346 349 349 348 349 354 356 358 355 352
339 339 340 341 342 343 343 342 343 342 343 347 349 347 346 347 347 347 347 349 350 345 341 335 325 318 318 319 320 322 334 352 348 346 346 348 354 356 356 355 354 346
338 338 339 339 339 340 341 341 341 342 343 347 346 344 344 344 344 346 347 348 349 344 336 328 325 319 315 315 316 319 339 349 350 350 350 352 353 355 355 356 351 343
337 337 337 338 338 338 339 341 342 343 343 347 344 345 344 345 345 345 345 346 347 338 331 327 325 322 314 313 314 317 335 348 352 353 351 352 352 352 352 352 352 354
338 338 338 337 336 337 338 338 338 341 344 343 342 343 343 343 345 343 343 343 340 338 339 329 327 326 314 312 312 315 332 344 350 351 349 350 351 349 348 349 350 351
339 338 337 336 334 335 336 336 339 340 341 344 344 343 342 342 344 342 342 338 334 332 331 329 327 325 321 311 311 312 319 346 346 349 350 350 350 347 343 341 339 337
Wind_Speed
5 5 6 6 6 6 7 6 5 6 5 5 6 5 6 6 5 5 5 5 5 4 4 4 3 3 3 2 2 2 2 2 1 1 1 1 2 1 1 0 1 2
6 6 5 6 5 5 6 6 6 6 6 5 5 5 5 5 6 5 5 5 5 5 4 4 4 4 4 4 3 3 3 2 2 1 2 2 1 0 1 1 3 2
6 5 6 7 7 7 7 6 6 6 6 6 5 5 5 5 6 5 5 5 5 5 5 4 4 4 4 4 4 4 4 3 3 2 2 3 1 0 1 1 2 3
7 6 6 7 6 7 6 6 5 5 4 5 6 6 5 4 5 6 5 6 6 5 5 4 5 5 4 4 4 4 4 4 4 3 3 2 2 1 2 1 2 1
8 6 6 6 6 6 6 6 7 6 6 6 6 5 5 5 5 6 5 5 5 5 5 5 5 5 4 4 4 5 4 5 3 3 3 3 2 1 2 2 2 3
6 6 6 6 6 6 6 7 7 7 7 7 8 6 6 5 5 6 6 6 5 5 6 5 5 5 5 4 4 4 4 4 3 3 3 3 3 2 2 2 3 4
8 7 7 6 6 6 7 7 7 7 7 7 6 6 6 6 6 6 6 7 6 6 6 6 5 5 5 4 4 4 4 4 3 4 4 3 3 4 3 2 3 4
8 7 7 6 7 6 7 7 7 7 7 6 7 7 6 7 6 6 6 7 6 6 6 6 6 6 6 5 5 5 4 4 4 4 4 5 3 4 3 3 3 3
8 8 7 7 8 7 8 8 7 8 7 7 8 7 6 7 7 7 6 7 7 7 6 6 6 7 6 5 6 6 6 5 5 5 5 5 4 5 5 3 3 3
9 8 8 8 9 7 8 9 8 7 7 8 8 7 7 7 7 8 6 7 8 8 7 6 6 6 5 6 7 7 6 6 5 5 6 5 6 5 5 4 4 4
9 9 9 10 10 8 8 8 8 8 6 7 8 8 8 7 7 7 7 7 9 9 8 7 7 7 6 6 6 6 6 6 6 5 5 6 6 6 6 5 5 5
9 10 10 11 10 9 8 8 8 8 7 7 7 9 8 8 8 7 8 7 8 9 9 6 5 6 7 7 6 6 6 6 6 6 6 6 6 6 6 5 5 5
10 11 11 10 10 9 8 7 7 8 8 9 8 9 9 8 8 9 8 7 1 9 14 11 10 11 12 11 7 4 6 6 7 6 6 6 6 7 6 6 6 6
10 10 10 10 9 9 9 9 8 8 8 9 8 9 9 9 4 2 3 7 8 9 9 7 7 8 7 3 4 10 9 7 7 7 7 6 5 6 6 6 6 6
6 6 5 7 8 8 7 6 7 8 7 6 8 9 8 6 7 8 6 5 6 7 8 6 6 5 5 8 8 9 9 11 8 7 5 5 4 4 5 5 5 3
11 5 2 5 4 3 3 2 1 1 2 4 6 7 4 7 6 7 7 7 6 5 6 6 6 5 4 7 8 7 8 8 7 6 6 6 6 6 6 5 5 3
3 8 13 13 8 5 3 3 3 3 3 2 3 4 5 4 5 6 6 6 7 7 7 6 6 6 10 10 10 12 8 7 11 9 7 6 7 7 7 6 5 5
5 7 6 7 10 12 11 9 4 5 4 3 2 5 4 4 4 4 5 6 6 7 7 6 6 7 9 5 6 7 9 9 6 7 6 5 6 7 7 6 6 4
6 7 4 2 5 7 6 6 7 3 2 2 2 1 3 5 4 5 5 4 5 6 6 4 5 5 3 2 5 6 8 9 10 9 5 6 1 4 6 5 4 2
6 10 6 4 4 5 4 1 2 4 3 2 2 1 1 3 4 4 4 4 5 6 4 4 4 3 3 3 4 6 7 7 6 5 7 7 6 8 5 4 4 5
5 6 5 3 4 4 3 3 1 4 5 3 1 2 2 3 5 5 3 3 3 4 5 4 2 2 1 3 5 6 6 6 3 2 5 6 5 5 5 5 5 6
4 4 5 6 6 3 2 4 3 3 2 5 2 1 0 2 3 3 3 2 2 4 4 4 2 4 4 4 5 6 6 4 6 6 7 2 3 4 4 3 3 5
1 3 5 6 7 5 2 4 1 4 7 4 2 1 1 4 2 1 1 2 3 3 5 3 2 5 6 6 5 5 2 2 5 6 7 5 4 4 4 4 4 5
2 2 4 4 5 7 5 5 0 2 2 2 3 3 3 4 4 2 1 1 4 5 3 4 2 5 9 9 8 6 3 1 1 6 6 3 3 2 2 3 4 9
3 3 3 4 5 5 4 3 2 1 1 4 5 4 2 1 1 1 2 2 4 4 7 6 3 5 11 12 11 8 2 2 3 4 4 5 5 4 2 4 4 6
0 2 2 3 4 3 2 2 1 0 2 1 3 4 5 4 5 5 3 5 5 4 4 5 5 6 8 12 12 12 11 1 2 5 6 6 5 5 5 3 4 4
Wind_Direction
182 186 180 182 190 189 182 182 190 190 197 197 194 203 199 205 209 203 205 207 205 202 199 188 176 179 187 173 171 168 177 182 216 205 242 261 276 279 315 220 206 201
193 185 185 178 189 194 188 184 187 191 196 200 202 197 207 202 210 200 204 206 204 202 196 188 187 184 182 187 180 176 198 188 234 218 222 240 232 74 283 222 206 181
193 186 185 180 190 193 190 191 187 192 191 201 202 196 199 202 206 206 201 198 200 200 196 194 193 194 190 197 189 184 190 204 223 243 185 228 228 150 287 242 191 193
197 192 188 186 189 191 190 188 196 198 197 199 206 206 201 202 197 200 201 198 196 198 199 197 199 201 199 200 191 195 198 206 220 204 216 229 242 203 261 274 232 207
195 196 190 186 189 187 185 191 200 202 204 208 209 209 204 203 198 203 200 203 196 198 199 205 206 204 197 195 193 198 201 211 220 198 201 230 240 200 245 224 241 251
198 196 191 189 189 184 193 199 204 203 207 207 213 206 206 203 200 202 202 203 199 197 201 204 204 210 200 201 199 208 207 209 219 196 212 222 250 230 240 221 225 243
194 195 195 192 193 192 193 206 210 207 205 207 206 210 203 203 207 205 202 204 201 199 202 203 204 210 206 200 200 217 222 217 216 210 214 236 242 266 260 255 227 231
194 193 196 196 200 202 207 203 211 211 207 203 203 212 199 205 204 207 201 202 205 205 206 205 205 206 206 194 202 211 221 218 221 212 216 229 229 250 263 251 232 232
192 193 195 201 205 207 214 212 208 211 207 204 207 207 205 204 200 200 196 198 205 205 203 204 207 211 207 198 203 205 209 217 210 203 207 220 224 235 240 243 253 241
194 194 199 203 209 208 212 214 209 204 202 207 208 203 203 206 201 202 196 198 204 209 206 204 209 215 212 206 206 205 208 216 215 211 214 220 223 231 234 231 233 235
194 196 200 206 211 210 212 214 214 212 200 204 206 209 206 203 206 204 201 199 204 208 211 211 212 215 214 214 213 210 210 214 218 222 228 228 227 226 229 230 238 233
194 197 200 203 208 213 214 215 219 219 217 211 205 206 205 204 205 206 203 205 207 207 207 211 220 219 216 211 209 213 217 219 219 221 227 231 233 235 236 231 232 235
195 197 197 200 204 210 215 216 215 221 218 217 212 208 205 204 208 208 207 209 210 34 35 23 23 8 1 337 320 267 215 219 227 225 226 225 230 235 238 232 228 230
200 195 195 198 200 205 211 215 221 225 217 214 211 214 210 210 181 73 50 75 114 151 172 174 174 175 167 201 298 311 306 244 223 224 225 225 240 242 239 238 235 238
214 190 191 196 200 204 212 224 230 232 229 213 209 210 209 162 144 156 146 124 126 150 167 172 166 191 203 198 186 202 258 273 232 224 208 202 226 242 243 241 240 228
342 337 182 138 129 148 153 139 130 295 258 198 210 215 186 174 150 151 156 154 144 133 148 153 166 173 220 231 225 231 211 244 271 231 193 203 218 235 251 247 239 186
71 16 354 358 5 33 43 73 59 51 42 51 89 106 134 160 158 146 157 166 154 155 162 172 172 176 183 198 214 238 248 248 240 231 210 204 204 214 232 236 246 204
92 86 59 38 31 14 359 346 11 58 47 23 63 110 118 128 143 157 160 170 168 171 172 175 178 165 178 208 248 256 248 238 246 255 236 211 212 212 219 225 232 251
103 74 67 108 99 87 53 7 333 10 39 47 50 71 121 130 146 149 166 172 172 173 178 170 128 63 32 316 289 277 254 227 216 202 172 246 287 262 229 224 230 208
104 122 158 190 124 95 87 95 319 345 12 31 43 20 104 136 144 151 163 176 181 182 154 106 108 34 4 323 290 277 272 254 224 203 170 185 191 227 223 202 187 151
94 125 139 111 96 122 151 238 231 27 3 349 342 194 186 167 161 155 156 168 174 154 139 128 104 41 336 309 299 294 302 290 298 272 172 179 191 180 182 180 167 152
92 95 84 71 65 103 207 234 213 113 342 291 236 260 304 62 51 58 71 76 120 140 144 119 81 22 352 333 323 336 321 73 59 0 319 282 139 147 166 159 140 136
101 88 100 106 113 125 202 258 335 120 204 223 191 217 38 31 40 51 144 171 150 134 106 85 32 6 4 351 349 348 320 109 151 190 216 201 170 161 151 147 138 142
82 76 96 111 131 147 190 235 70 172 180 144 145 109 104 182 185 156 39 14 61 81 111 109 71 10 11 2 2 8 306 244 219 175 182 184 152 121 116 133 152 141
119 119 114 123 129 153 183 210 205 185 132 108 134 139 199 219 212 51 352 34 76 95 103 99 77 32 19 5 3 2 1 238 227 185 178 178 154 128 88 92 92 112
32 116 123 117 121 128 160 218 244 350 358 93 134 165 197 172 166 182 165 59 41 52 42 47 56 37 26 21 13 6 348 294 193 178 175 171 168 156 142 109 111 107